• In Belgium
  • List of Countries
  • For 7 days
  • Water Temperature
  • Satellite Maps
  • Weather Map
  • Weather Widgets
  • user-avatar
    Login

    Hourly Weather Kentwood

    Today, 20 September, Thursday

    Time Temperature Precipitation Wind Pressure Humidity
    00:00 +19°C° 0 mm 2 mps 742 mmHg 90%
    01:00 +19°C° 0.8 mm 2 mps 742 mmHg 90%
    02:00 +19°C° 0.8 mm 2 mps 742 mmHg 91%
    03:00 +18°C° 0.8 mm 2 mps 742 mmHg 92%
    04:00 +18°C° 0.7 mm 2 mps 742 mmHg 93%
    05:00 +18°C° 0.7 mm 2 mps 742 mmHg 95%
    06:00 +18°C° 0.7 mm 2 mps 742 mmHg 96%
    07:00 +20°C° 0.1 mm 3 mps 742 mmHg 93%
    08:00 +21°C° 0.1 mm 3 mps 742 mmHg 90%
    09:00 +22°C° 0.1 mm 3 mps 742 mmHg 88%
    10:00 +25°C° 0.2 mm 3 mps 742 mmHg 83%
    11:00 +27°C° 0.2 mm 3 mps 742 mmHg 78%
    12:00 +29°C° 0.2 mm 3 mps 741 mmHg 72%
    13:00 +29°C° 0.6 mm 3 mps 741 mmHg 73%
    14:00 +30°C° 0.6 mm 3 mps 740 mmHg 74%
    15:00 +30°C° 0.6 mm 3 mps 740 mmHg 74%
    16:00 +29°C° 0.3 mm 4 mps 739 mmHg 79%
    17:00 +27°C° 0.3 mm 4 mps 739 mmHg 84%
    18:00 +26°C° 0.3 mm 4 mps 739 mmHg 89%
    19:00 +26°C° 0 mm 4 mps 738 mmHg 89%
    20:00 +26°C° 0 mm 5 mps 738 mmHg 88%
    21:00 +26°C° 0 mm 6 mps 738 mmHg 88%
    22:00 +26°C° 0.2 mm 6 mps 738 mmHg 88%
    23:00 +24°C° 0.2 mm 6 mps 738 mmHg 87%

    Tomorrow, 21 September, Friday

    Time Temperature Precipitation Wind Pressure Humidity
    00:00 +24°C° 0.2 mm 7 mps 737 mmHg 87%
    01:00 +24°C° 0.4 mm 7 mps 737 mmHg 85%
    02:00 +24°C° 0.4 mm 8 mps 736 mmHg 83%
    03:00 +24°C° 0.4 mm 8 mps 736 mmHg 81%
    04:00 +24°C° 0 mm 8 mps 736 mmHg 79%
    05:00 +24°C° 0 mm 9 mps 736 mmHg 77%
    06:00 +24°C° 0 mm 9 mps 735 mmHg 74%
    07:00 +24°C° 0.1 mm 9 mps 736 mmHg 76%
    08:00 +24°C° 0.1 mm 9 mps 736 mmHg 78%
    09:00 +24°C° 0.1 mm 9 mps 737 mmHg 80%
    10:00 +23°C° 0.1 mm 9 mps 737 mmHg 76%
    11:00 +23°C° 0.1 mm 9 mps 738 mmHg 71%
    12:00 +22°C° 0.1 mm 9 mps 738 mmHg 67%
    13:00 +21°C° 0 mm 9 mps 739 mmHg 66%
    14:00 +21°C° 0 mm 9 mps 739 mmHg 66%
    15:00 +19°C° 0 mm 9 mps 740 mmHg 66%
    16:00 +18°C° 0 mm 8 mps 741 mmHg 66%
    17:00 +17°C° 0 mm 7 mps 742 mmHg 66%
    18:00 +16°C° 0 mm 6 mps 743 mmHg 66%
    19:00 +15°C° 0 mm 6 mps 743 mmHg 67%
    20:00 +14°C° 0 mm 5 mps 744 mmHg 69%
    21:00 +13°C° 0 mm 4 mps 745 mmHg 70%
    22:00 +12°C° 0 mm 4 mps 746 mmHg 72%
    23:00 +11°C° 0 mm 4 mps 746 mmHg 74%

    Day after tomorrow, 22 September, Saturday

    Time Temperature Precipitation Wind Pressure Humidity
    00:00 +10°C° 0 mm 3 mps 746 mmHg 75%
    01:00 +10°C° 0 mm 3 mps 747 mmHg 76%
    02:00 +9°C° 0 mm 3 mps 747 mmHg 77%
    03:00 +9°C° 0 mm 3 mps 747 mmHg 78%
    04:00 +8°C° 0 mm 3 mps 747 mmHg 80%
    05:00 +8°C° 0 mm 3 mps 748 mmHg 81%
    06:00 +7°C° 0 mm 3 mps 748 mmHg 83%
    07:00 +9°C° 0 mm 3 mps 748 mmHg 76%
    08:00 +11°C° 0 mm 3 mps 748 mmHg 69%
    09:00 +13°C° 0 mm 3 mps 748 mmHg 62%
    10:00 +15°C° 0 mm 2 mps 748 mmHg 59%
    11:00 +17°C° 0 mm 2 mps 748 mmHg 56%
    12:00 +18°C° 0 mm 2 mps 748 mmHg 53%
    13:00 +18°C° 0 mm 2 mps 747 mmHg 53%
    14:00 +19°C° 0 mm 2 mps 747 mmHg 53%
    15:00 +20°C° 0 mm 1 mps 746 mmHg 53%
    16:00 +18°C° 0 mm 1 mps 746 mmHg 60%
    17:00 +15°C° 0 mm 1 mps 746 mmHg 66%
    18:00 +14°C° 0 mm 2 mps 746 mmHg 73%
    19:00 +13°C° 0 mm 1 mps 746 mmHg 75%
    20:00 +12°C° 0 mm 1 mps 747 mmHg 77%
    21:00 +11°C° 0 mm 1 mps 747 mmHg 79%
    22:00 +11°C° 0 mm 1 mps 747 mmHg 80%
    23:00 +10°C° 0 mm 1 mps 747 mmHg 81%

    23 September, Sunday

    Time Temperature Precipitation Wind Pressure Humidity
    00:00 +10°C° 0 mm 1 mps 747 mmHg 82%
    01:00 +10°C° 0 mm 1 mps 747 mmHg 83%
    02:00 +10°C° 0 mm 1 mps 747 mmHg 84%
    03:00 +10°C° 0 mm 1 mps 747 mmHg 84%
    04:00 +10°C° 0 mm 1 mps 747 mmHg 85%
    05:00 +10°C° 0 mm 1 mps 747 mmHg 86%
    06:00 +10°C° 0 mm 1 mps 747 mmHg 87%
    07:00 +12°C° 0 mm 1 mps 748 mmHg 80%
    08:00 +14°C° 0 mm 2 mps 748 mmHg 73%
    09:00 +17°C° 0 mm 2 mps 748 mmHg 66%
    10:00 +18°C° 0 mm 2 mps 748 mmHg 62%
    11:00 +20°C° 0 mm 2 mps 748 mmHg 57%
    12:00 +21°C° 0 mm 2 mps 748 mmHg 53%
    13:00 +21°C° 0 mm 2 mps 747 mmHg 53%
    14:00 +23°C° 0 mm 2 mps 747 mmHg 53%
    15:00 +23°C° 0 mm 2 mps 747 mmHg 53%
    16:00 +20°C° 0 mm 2 mps 747 mmHg 60%
    17:00 +18°C° 0 mm 2 mps 746 mmHg 67%
    18:00 +17°C° 0 mm 2 mps 746 mmHg 74%
    19:00 +16°C° 0 mm 2 mps 747 mmHg 76%
    20:00 +14°C° 0 mm 3 mps 747 mmHg 79%
    21:00 +13°C° 0 mm 3 mps 747 mmHg 82%
    22:00 +12°C° 0 mm 3 mps 747 mmHg 84%
    23:00 +12°C° 0 mm 3 mps 747 mmHg 85%

    24 September, Monday

    Time Temperature Precipitation Wind Pressure Humidity
    00:00 +11°C° 0 mm 3 mps 746 mmHg 87%
    01:00 +11°C° 0 mm 3 mps 746 mmHg 89%
    02:00 +11°C° 0 mm 3 mps 746 mmHg 90%
    03:00 +10°C° 0 mm 3 mps 746 mmHg 92%
    04:00 +10°C° 0 mm 3 mps 746 mmHg 93%
    05:00 +10°C° 0 mm 3 mps 746 mmHg 94%
    06:00 +10°C° 0 mm 3 mps 746 mmHg 95%
    07:00 +13°C° 0 mm 3 mps 746 mmHg 87%
    08:00 +17°C° 0 mm 3 mps 746 mmHg 80%
    09:00 +19°C° 0 mm 3 mps 746 mmHg 72%
    10:00 +21°C° 0 mm 4 mps 746 mmHg 67%
    11:00 +22°C° 0 mm 4 mps 746 mmHg 62%
    12:00 +25°C° 0 mm 4 mps 745 mmHg 57%
    13:00 +25°C° 0 mm 4 mps 744 mmHg 58%
    14:00 +25°C° 0 mm 4 mps 744 mmHg 60%
    15:00 +26°C° 0 mm 3 mps 743 mmHg 61%
    16:00 +24°C° 0 mm 3 mps 743 mmHg 70%
    17:00 +22°C° 0 mm 3 mps 742 mmHg 78%
    18:00 +20°C° 0 mm 3 mps 742 mmHg 87%
    19:00 +20°C° 0 mm 3 mps 742 mmHg 88%
    20:00 +20°C° 0 mm 3 mps 742 mmHg 90%
    21:00 +20°C° 0 mm 4 mps 742 mmHg 92%
    22:00 +19°C° 0 mm 4 mps 742 mmHg 93%
    23:00 +19°C° 0 mm 4 mps 741 mmHg 95%

    25 September, Tuesday

    Time Temperature Precipitation Wind Pressure Humidity
    00:00 +19°C° 0 mm 4 mps 741 mmHg 97%
    01:00 +19°C° 0.1 mm 3 mps 741 mmHg 97%
    02:00 +19°C° 0.1 mm 3 mps 741 mmHg 97%
    03:00 +19°C° 0.1 mm 3 mps 740 mmHg 97%
    04:00 +20°C° 0.1 mm 3 mps 740 mmHg 97%
    05:00 +20°C° 0.1 mm 4 mps 740 mmHg 97%
    06:00 +20°C° 0.1 mm 4 mps 740 mmHg 97%
    07:00 +20°C° 0.5 mm 4 mps 739 mmHg 96%
    08:00 +21°C° 0.5 mm 5 mps 739 mmHg 94%
    09:00 +21°C° 0.5 mm 5 mps 739 mmHg 92%
    10:00 +21°C° 2 mm 5 mps 738 mmHg 92%
    11:00 +22°C° 2 mm 5 mps 738 mmHg 91%
    12:00 +22°C° 2 mm 5 mps 737 mmHg 91%
    13:00 +21°C° 1.5 mm 5 mps 737 mmHg 90%
    14:00 +21°C° 1.5 mm 5 mps 737 mmHg 89%
    15:00 +21°C° 1.5 mm 4 mps 737 mmHg 89%
    16:00 +20°C° 0 mm 4 mps 737 mmHg 90%
    17:00 +19°C° 0 mm 4 mps 737 mmHg 91%
    18:00 +18°C° 0 mm 4 mps 738 mmHg 92%
    19:00 +17°C° 0 mm 4 mps 738 mmHg 92%
    20:00 +15°C° 0 mm 4 mps 738 mmHg 92%
    21:00 +14°C° 0 mm 3 mps 739 mmHg 92%
    22:00 +14°C° 0 mm 3 mps 739 mmHg 92%
    23:00 +14°C° 0 mm 2 mps 739 mmHg 93%
    Show more